Wind_Speed
28 29 29 30 32 34 35 35 32 32 36 40 44 45 40 40 47 49 48 48 49 50 51 51 51 50 49 50 49 49 48 49 49 49 49 49 49 48 48 48 48 48 48 47 47 46 46 45 45 44 44 44 44 44 45 46 46 47 48 49 49 50 49
29 30 29 29 31 34 36 37 34 31 33 37 42 46 41 40 47 51 50 50 50 51 52 52 53 52 51 51 51 50 49 50 50 50 49 49 49 49 49 49 49 49 48 48 47 47 46 46 45 45 45 44 44 45 46 47 48 49 50 51 52 51 51
32 32 32 30 30 33 36 38 36 32 30 32 40 45 41 41 48 51 51 51 51 52 53 53 54 54 53 53 52 52 52 52 51 50 50 49 49 49 49 49 49 48 48 48 47 47 46 46 46 46 45 44 44 45 47 48 50 51 52 52 53 53 52
32 33 34 33 33 34 36 37 37 32 28 30 39 44 39 41 49 53 52 52 53 53 54 55 56 56 55 55 53 53 54 54 53 52 51 50 49 49 49 49 48 48 47 47 47 46 46 45 46 46 45 44 44 46 47 49 51 53 54 54 54 54 53
32 33 34 35 36 37 37 37 37 33 27 29 38 45 43 44 51 53 53 54 54 54 55 56 57 58 57 56 55 55 55 55 55 54 53 51 50 50 51 50 49 48 47 47 46 46 45 45 45 45 45 45 45 47 49 50 52 55 56 57 57 57 55
34 33 34 36 38 39 38 36 37 36 32 32 41 48 46 44 50 54 54 55 55 56 57 57 59 60 59 58 57 57 57 57 57 56 54 53 52 51 51 51 50 49 48 48 47 46 46 46 46 46 46 46 47 50 52 53 54 57 59 60 61 61 59
37 36 36 37 38 40 40 39 40 41 38 38 44 49 45 42 50 55 56 56 57 58 59 59 61 62 61 60 59 59 59 59 59 58 57 55 53 52 52 52 51 51 50 49 48 47 47 46 47 47 48 49 50 53 55 57 58 60 61 63 64 64 62
39 40 40 39 40 41 42 43 44 43 42 43 47 49 47 46 52 56 56 57 59 59 60 61 63 65 64 63 62 62 61 61 61 60 59 57 55 54 53 52 52 53 52 51 49 49 49 48 49 49 50 51 53 55 58 60 62 63 64 65 66 65 63
41 42 43 42 42 43 45 46 45 45 46 48 50 52 52 52 55 57 58 59 60 61 62 63 64 66 66 65 64 64 64 64 63 63 61 59 58 56 54 52 52 52 53 53 52 50 50 51 51 52 53 54 56 58 61 63 64 66 66 68 67 64 62
45 46 46 45 45 46 47 47 46 48 51 52 53 55 55 56 57 59 60 61 62 63 64 65 66 67 67 66 66 66 67 66 66 65 63 62 60 58 57 55 53 53 53 54 55 54 53 53 54 54 55 57 59 60 62 64 66 68 69 70 68 64 62
48 48 48 47 47 48 50 50 50 52 53 54 56 56 57 58 59 60 62 63 63 65 65 67 68 69 68 68 68 68 69 69 68 66 65 64 63 61 59 57 55 54 54 54 56 56 56 56 57 57 58 59 61 63 64 65 65 68 71 73 72 68 64
49 51 51 50 50 51 52 52 53 54 55 56 57 57 59 60 60 62 64 64 67 67 66 67 70 70 70 69 69 70 70 70 70 68 66 65 64 63 62 60 57 56 56 56 57 57 58 58 59 60 61 62 63 65 66 67 66 66 68 73 77 76 69
49 51 53 53 53 54 54 55 55 56 57 58 59 60 61 61 63 64 64 67 69 65 63 69 72 71 71 72 71 72 72 71 71 70 68 66 65 64 63 61 59 58 58 58 59 59 59 59 60 61 62 64 65 66 68 69 69 68 67 69 75 78 74
49 49 51 55 57 56 57 58 58 58 59 60 61 62 62 64 65 65 67 69 66 60 64 72 75 73 73 74 73 74 74 73 72 71 70 68 67 66 65 62 60 59 59 59 60 60 60 60 61 62 64 65 66 68 69 71 72 72 70 70 72 75 74
52 50 51 54 57 58 59 60 60 61 61 61 63 64 65 66 66 67 69 65 59 63 71 75 74 75 76 76 76 76 75 75 74 73 71 70 68 68 66 64 62 61 60 60 61 61 61 61 62 63 65 66 67 69 71 73 75 75 74 74 74 73 72
55 54 53 54 57 60 62 62 62 63 63 63 65 65 67 68 67 70 69 59 58 69 76 75 75 77 77 78 78 77 77 76 75 74 73 71 70 69 68 66 64 62 61 61 61 61 61 62 63 64 66 67 68 70 72 75 77 77 77 77 76 74 71
59 58 58 58 61 64 64 63 64 65 65 66 66 67 68 69 70 70 64 58 65 75 76 76 77 78 78 80 79 78 78 78 76 76 75 73 72 71 69 67 65 63 62 61 61 62 62 63 64 65 67 68 70 72 73 77 80 80 79 80 79 76 73
62 63 63 63 64 66 66 66 67 67 68 69 68 69 70 70 71 67 59 61 73 78 76 77 78 78 80 80 78 79 80 79 78 77 76 74 74 73 71 68 66 64 63 62 62 62 63 64 65 66 67 70 72 74 76 78 80 81 81 82 80 78 74
65 66 66 66 67 68 68 69 69 69 70 71 70 72 72 72 72 67 60 65 77 79 77 78 79 79 81 79 78 81 82 80 80 78 76 76 75 74 71 69 67 65 64 63 63 63 64 64 65 66 69 72 74 77 79 79 79 81 83 83 80 77 73
66 67 68 68 68 69 70 71 71 71 72 73 73 75 75 75 74 71 67 72 80 80 79 80 80 80 81 79 80 83 83 82 81 79 78 77 75 74 72 69 67 65 64 64 64 64 65 65 66 68 71 75 77 79 82 82 82 83 84 83 79 76 71
68 69 69 70 71 71 72 73 72 72 74 76 77 77 79 79 78 77 77 81 83 81 82 83 81 81 81 80 82 84 84 83 82 80 79 77 76 74 72 69 67 65 64 65 65 65 66 66 67 69 73 77 80 82 84 84 84 84 84 82 78 74 68
69 70 71 72 73 74 75 75 74 74 76 79 80 80 81 82 82 83 84 85 85 84 85 85 84 83 82 82 84 86 85 84 82 81 80 78 76 74 71 69 66 65 65 66 66 66 67 68 70 72 75 78 81 83 85 85 85 85 84 82 77 70 65
70 71 72 73 74 75 76 76 76 76 78 80 81 82 83 83 84 85 87 87 87 87 87 87 86 85 84 85 87 87 86 85 83 81 79 77 75 74 72 69 67 66 66 66 67 69 70 71 74 76 79 81 82 84 85 86 86 84 83 80 73 66 61
72 72 73 74 75 76 76 77 79 79 80 81 82 82 84 85 86 87 88 89 89 89 89 88 87 87 87 88 89 88 88 86 84 81 78 75 73 72 70 69 69 68 67 68 70 71 72 75 77 79 81 83 85 86 86 87 86 83 79 75 68 62 56
73 74 75 76 76 77 78 79 80 81 82 82 83 83 85 86 87 87 89 90 91 91 91 89 88 88 89 90 90 90 89 87 84 81 78 75 72 68 68 70 73 71 70 71 72 73 75 78 80 82 84 85 87 88 88 87 86 81 75 68 62 56 51
75 76 77 77 78 79 79 80 81 82 83 83 83 84 85 86 87 88 90 90 91 92 92 91 89 89 90 93 94 92 90 87 84 80 77 74 71 69 70 72 74 74 73 74 74 76 78 80 82 84 87 88 89 89 89 88 84 77 69 61 55 51 46
78 78 78 79 79 80 80 82 83 82 82 84 85 85 86 86 88 89 90 91 91 92 92 91 90 90 92 95 94 91 89 86 82 78 76 73 72 73 72 72 74 75 75 75 76 78 81 83 85 86 89 91 90 89 88 87 82 74 65 57 50 46 42
78 78 79 80 80 81 82 82 82 82 84 84 84 84 85 87 89 90 92 92 91 90 91 92 92 93 94 95 92 90 88 85 81 78 75 73 72 73 72 73 75 76 76 77 78 79 82 85 87 88 90 91 90 88 85 83 78 71 62 55 47 43 39
76 78 80 81 82 82 82 82 83 84 83 81 80 83 87 89 89 90 91 92 92 90 91 93 95 96 95 93 90 89 88 84 81 78 75 73 73 72 72 74 77 78 79 80 81 82 84 86 88 90 90 89 88 86 81 77 73 66 58 51 45 40 36
80 81 82 83 82 82 82 83 84 84 82 82 83 86 89 89 89 89 91 92 92 91 91 93 95 96 94 92 91 90 87 83 80 76 74 74 75 74 75 77 78 80 81 82 83 85 86 87 89 90 90 88 86 81 76 72 68 61 54 48 43 38 33
83 83 84 84 83 83 83 83 82 82 84 85 86 86 88 90 91 91 90 89 91 93 95 95 95 94 93 92 91 88 83 80 77 74 74 75 75 76 78 78 79 81 84 85 86 87 88 89 89 88 88 85 79 75 73 70 63 56 50 45 40 36 32
85 84 84 84 84 84 84 83 82 84 87 88 88 90 91 90 91 90 89 90 94 97 98 96 94 94 94 93 90 85 81 77 75 74 74 76 77 78 81 81 81 83 86 88 89 88 89 89 88 86 85 81 75 72 71 65 58 52 47 42 37 33 29
84 82 81 82 83 86 88 87 86 88 90 90 91 90 87 86 89 90 92 96 99 99 97 96 95 95 94 91 87 83 79 77 75 75 77 78 79 80 83 85 86 86 87 89 90 90 89 89 86 84 81 76 72 69 65 58 53 49 44 39 35 31 29
80 79 79 82 87 90 91 90 89 91 92 91 89 88 89 92 95 96 97 98 98 97 97 97 96 94 92 88 84 80 78 78 78 79 80 81 82 83 85 87 90 89 88 89 91 91 90 88 86 82 77 71 67 63 58 53 50 46 41 37 33 30 29
77 79 81 85 88 90 91 91 93 94 93 91 91 93 96 99 100 100 101 100 98 99 99 98 95 92 89 86 82 80 79 80 81 82 83 84 86 87 88 89 92 92 91 91 91 90 88 86 83 79 73 67 62 57 52 49 46 43 38 34 30 28 28
80 83 86 87 88 89 92 94 95 94 93 96 99 100 100 100 101 102 103 102 100 99 98 96 92 90 88 85 83 82 82 84 85 86 87 88 89 90 91 91 93 94 93 92 91 89 85 82 80 75 70 64 59 53 49 45 41 39 36 32 28 26 26
85 87 90 91 92 94 95 96 96 97 99 103 104 103 102 102 102 103 103 102 101 98 96 92 90 88 87 87 86 85 86 88 89 90 91 91 91 93 93 93 94 94 93 90 88 86 83 79 75 71 66 61 56 52 47 42 38 35 34 31 27 25 24
91 93 95 97 97 96 97 98 100 102 104 105 105 105 104 104 103 103 103 101 98 96 93 90 88 87 88 88 88 88 90 91 92 93 93 93 93 94 95 94 93 92 90 87 84 82 79 75 71 66 62 57 53 50 46 41 36 33 31 30 27 24 23
Wind_Direction
335 336 336 337 335 334 336 336 327 322 330 335 333 329 327 330 332 331 331 333 333 333 333 334 334 334 332 331 330 329 327 324 323 320 318 315 313 311 308 305 303 302 300 299 298 298 297 296 295 294 293 292 291 291 292 294 295 297 298 298 297 296 294
329 332 332 333 334 332 332 334 327 319 326 332 328 326 324 325 327 328 328 330 331 331 331 332 333 333 332 331 330 329 327 325 323 321 318 316 313 311 308 306 304 302 301 300 299 298 297 297 296 294 293 292 292 293 294 296 298 299 299 299 298 296 294
326 327 328 329 330 328 328 331 328 319 320 324 323 324 322 321 323 324 325 328 329 330 330 330 331 332 332 331 330 329 327 325 324 322 319 316 313 311 308 306 304 303 301 300 299 298 297 297 295 293 292 291 291 293 296 299 300 301 301 300 299 297 295
323 324 324 324 324 325 325 328 326 320 314 316 322 324 319 315 320 322 323 325 327 328 330 330 330 331 331 331 330 328 326 326 325 323 321 318 314 311 309 307 305 303 301 299 298 297 297 296 294 292 291 291 292 295 298 300 302 302 302 301 300 298 296
319 320 320 319 320 322 323 324 324 320 311 310 319 323 318 313 317 320 321 324 326 327 329 329 329 330 330 330 329 327 326 325 325 324 322 319 316 312 310 308 306 304 302 300 298 298 297 295 294 292 292 293 295 298 300 302 304 304 303 303 301 300 298
314 316 317 317 318 320 320 320 321 320 314 308 312 319 319 312 313 318 321 323 325 326 328 329 329 329 329 329 327 326 325 325 324 324 323 320 317 314 311 309 307 305 303 302 301 300 298 296 295 294 295 296 299 301 302 304 305 305 305 304 303 302 301
312 313 314 314 316 317 317 317 317 317 314 310 310 315 316 308 310 317 321 322 324 326 327 328 328 328 328 328 326 325 324 324 324 323 323 321 319 316 313 311 309 306 305 304 303 301 299 298 297 297 297 299 302 304 305 306 306 306 306 305 304 303 303
310 310 311 312 312 315 315 314 314 314 312 311 311 313 313 310 312 318 320 321 324 325 326 327 327 327 327 327 326 324 324 323 323 323 323 321 319 316 314 311 309 308 306 305 303 302 301 300 299 299 300 302 304 306 307 307 307 307 306 305 303 303 304
308 308 309 310 311 312 313 312 312 312 312 312 311 313 314 314 316 318 320 321 323 324 325 326 326 326 327 327 325 324 323 323 323 323 322 321 319 317 314 312 309 307 306 305 303 302 301 301 301 301 302 303 305 306 306 307 307 306 306 305 303 304 305
307 306 306 308 309 310 312 311 310 310 311 311 312 313 314 315 317 318 319 321 323 323 324 325 325 325 326 326 324 323 323 322 322 322 322 321 319 317 314 312 310 307 306 304 303 302 302 301 301 301 302 304 305 306 306 306 308 308 307 305 304 306 307
306 305 305 306 308 309 310 310 309 309 310 311 312 313 314 315 317 318 319 320 321 322 323 323 324 325 326 325 324 323 322 322 322 322 321 320 319 317 314 312 310 308 305 303 302 302 302 302 302 302 303 305 306 306 306 306 308 311 311 309 308 309 309
304 304 303 304 306 308 308 308 308 309 310 310 311 312 313 314 316 317 319 319 320 321 321 322 323 324 324 324 323 323 322 322 321 321 320 319 318 316 314 312 310 308 305 304 302 302 302 302 303 303 304 305 305 305 306 306 308 310 312 312 312 311 311
301 303 302 302 305 305 305 307 308 308 309 309 310 311 312 313 315 317 317 318 319 319 318 320 323 322 322 323 322 322 322 321 321 320 319 319 317 315 313 312 310 308 305 304 302 302 301 302 302 303 304 305 305 305 306 306 307 309 310 312 312 312 313
299 301 298 298 302 303 304 306 307 307 308 309 309 311 311 313 315 316 317 318 318 316 315 319 321 321 321 322 322 322 322 321 321 320 319 318 316 314 313 311 309 307 305 304 302 301 301 301 302 303 304 304 305 306 306 307 308 308 310 312 313 313 313
296 297 295 295 299 302 303 305 306 307 307 308 310 310 311 312 313 314 317 317 313 312 315 318 319 320 321 321 321 321 322 321 321 320 319 317 316 315 313 311 309 307 305 303 302 302 301 302 302 303 304 304 305 306 308 309 309 310 311 313 314 314 313
294 295 294 294 296 299 302 303 304 305 306 307 309 309 309 311 312 314 316 313 308 311 316 317 318 319 320 320 320 321 321 321 320 319 318 317 316 314 312 310 308 306 305 303 303 302 302 302 303 304 304 305 306 307 309 310 311 312 313 314 315 315 315
292 294 294 294 296 299 300 302 304 304 305 306 307 307 308 309 311 314 313 307 308 313 315 316 317 319 319 319 319 320 321 321 320 319 318 317 316 314 312 310 308 306 305 304 303 303 303 304 304 304 305 306 307 308 310 312 313 314 315 316 316 316 316
293 294 295 297 298 299 301 302 303 303 304 305 305 306 306 307 311 314 308 303 310 314 314 316 317 318 318 318 318 320 321 320 319 318 317 316 315 313 311 309 308 306 305 304 303 303 304 304 304 305 307 308 309 310 312 313 314 315 316 316 317 317 317
294 295 297 298 299 299 300 301 302 302 302 303 303 305 305 307 311 311 303 302 310 314 314 315 316 317 318 317 317 320 320 319 318 317 316 316 314 312 311 309 307 307 305 304 304 304 304 304 305 307 309 310 311 313 314 315 316 316 316 317 317 317 317
293 295 296 297 298 298 298 299 300 301 302 302 303 304 305 307 310 308 303 306 311 313 314 315 316 317 317 315 317 319 319 318 318 316 315 315 313 311 310 308 307 306 305 304 304 304 305 306 307 310 311 312 313 314 315 315 316 316 317 317 317 317 317
293 294 295 296 296 296 297 298 300 301 302 302 303 305 306 307 308 308 307 309 312 312 314 315 315 317 316 315 317 318 318 317 317 315 315 314 313 311 309 307 306 305 305 305 305 305 306 307 309 312 313 313 314 315 315 316 317 317 318 318 318 317 316
292 293 294 295 295 296 297 298 300 301 301 302 303 305 306 307 308 308 309 311 312 312 314 314 315 316 315 315 316 317 317 316 316 315 314 313 311 309 307 306 305 305 305 306 306 307 308 309 311 312 313 313 315 315 315 316 317 318 318 318 317 317 316
290 292 293 293 294 295 296 298 299 300 300 301 303 304 305 307 307 308 309 310 311 312 313 314 315 315 314 314 316 316 316 315 315 314 313 312 310 308 307 306 305 305 306 307 308 308 310 311 312 313 313 314 315 315 316 317 318 318 318 317 317 316 314
289 290 291 292 293 294 295 297 298 299 299 301 302 304 305 306 306 307 308 309 310 311 312 313 314 314 314 314 315 315 315 315 314 313 312 311 310 308 306 306 306 307 308 308 309 310 311 312 313 313 314 315 315 316 317 318 317 318 318 317 316 315 312
288 289 290 291 292 293 295 296 297 298 299 300 302 303 304 305 305 306 307 308 309 310 311 313 313 312 313 314 314 314 314 314 314 313 312 310 308 307 307 308 308 309 309 309 309 311 312 313 313 314 314 315 316 317 318 318 317 318 318 317 315 312 308
287 288 289 291 292 293 295 295 296 297 298 300 301 302 303 304 304 305 306 307 308 309 310 311 312 311 312 313 314 314 313 313 313 312 311 309 307 306 308 308 308 308 309 309 310 312 313 313 313 314 315 316 317 318 318 317 317 318 318 316 313 309 305
287 288 289 290 292 293 294 295 295 296 297 299 300 300 301 302 303 304 305 305 307 308 308 309 310 310 311 312 313 312 312 312 311 310 309 307 306 306 307 307 307 307 308 309 311 312 313 313 314 316 316 316 317 318 318 317 317 318 318 316 311 306 301
286 288 289 291 292 293 294 294 294 295 297 298 298 299 301 302 302 303 303 304 305 306 307 308 309 309 310 311 311 310 310 310 309 308 307 305 303 305 306 307 307 307 308 309 311 312 313 314 315 316 316 316 317 318 318 317 316 317 316 313 309 303 298
286 288 290 291 292 292 292 292 294 295 296 296 297 299 300 301 302 303 303 303 305 305 306 307 308 309 309 310 309 309 309 309 307 306 305 303 303 305 306 306 307 307 308 310 310 311 313 314 315 315 315 316 316 317 317 316 316 316 314 310 305 299 295
286 288 290 290 291 290 290 292 293 294 295 296 297 298 299 300 301 302 302 303 304 304 305 306 307 307 308 308 307 307 307 306 305 305 304 303 304 305 305 306 306 307 308 309 310 311 312 313 314 315 315 316 316 316 317 317 316 314 310 306 301 295 290
287 288 289 289 288 288 290 292 293 293 295 296 297 297 297 298 299 301 302 301 300 301 303 304 304 305 305 305 305 305 304 303 303 303 302 302 303 304 304 305 306 306 308 309 310 311 312 313 314 315 316 316 316 316 317 317 315 311 306 301 297 291 284
287 287 288 288 288 289 290 291 292 293 295 295 296 296 297 297 298 300 300 298 298 299 301 302 303 303 304 303 303 303 302 302 302 302 301 302 303 304 304 305 306 307 308 309 310 310 312 313 314 315 315 315 314 313 314 313 311 306 301 296 292 286 279
286 286 286 287 288 289 291 291 292 293 294 294 295 295 295 295 296 296 296 296 298 299 300 301 302 302 302 302 302 302 302 302 302 302 302 302 303 304 305 306 306 307 308 309 309 310 311 312 313 313 314 313 312 310 310 309 306 302 295 289 285 280 273
284 283 285 286 287 289 290 291 292 292 291 291 292 292 292 293 294 294 295 296 298 299 299 300 301 302 301 301 301 301 301 302 302 302 303 304 304 305 306 306 306 306 307 308 309 310 311 311 312 312 313 312 310 309 306 304 302 299 291 283 278 273 268
281 282 285 286 287 288 289 290 291 291 290 290 291 292 292 294 294 295 296 297 298 298 299 300 301 301 300 300 300 301 301 302 302 303 303 304 305 305 305 305 306 306 307 308 308 309 310 310 311 312 312 311 309 307 303 300 299 295 288 281 273 266 264
280 282 284 285 286 286 287 288 289 289 289 290 292 293 293 294 294 295 296 297 297 298 299 300 300 300 300 300 300 302 302 302 302 303 303 304 304 304 305 305 305 306 307 307 308 309 310 310 311 311 311 310 308 305 301 297 295 291 285 278 268 262 261
280 281 283 284 285 285 286 287 288 288 289 291 292 293 293 294 294 295 295 296 297 298 299 299 299 299 299 300 301 302 302 302 302 303 303 303 304 304 304 304 305 305 306 307 308 308 309 310 310 310 310 309 306 303 300 297 293 288 283 275 266 260 258
278 280 282 284 284 285 285 286 288 289 290 290 291 292 293 294 294 295 295 296 297 298 298 299 299 299 299 300 301 301 301 301 302 302 302 302 302 302 303 304 304 305 306 307 308 308 309 309 309 309 309 307 303 300 298 295 291 286 281 273 265 259 255
Height
10963 10962 10960 10958 10955 10951 10951 10950 10947 10945 10942 10936 10933 10932 10930 10927 10925 10925 10923 10921 10918 10915 10911 10908 10906 10903 10900 10897 10895 10892 10889 10885 10882 10879 10876 10873 10870 10868 10865 10863 10860 10858 10856 10855 10853 10851 10849 10847 10846 10844 10842 10841 10839 10838 10836 10835 10833 10832 10830 10829 10827 10825 10824
10961 10959 10958 10957 10954 10950 10949 10948 10946 10942 10939 10935 10932 10931 10929 10925 10923 10922 10921 10918 10915 10912 10908 10905 10902 10899 10897 10893 10890 10888 10885 10882 10878 10875 10872 10869 10866 10863 10860 10857 10855 10852 10850 10848 10847 10845 10843 10841 10839 10837 10835 10834 10832 10830 10829 10827 10826 10825 10823 10821 10819 10817 10815
10957 10955 10954 10953 10953 10951 10947 10945 10942 10939 10936 10933 10932 10929 10926 10923 10922 10921 10918 10916 10913 10909 10905 10902 10898 10895 10892 10889 10886 10882 10880 10877 10874 10871 10868 10865 10862 10858 10856 10853 10850 10848 10845 10843 10841 10839 10837 10835 10833 10830 10829 10828 10826 10824 10822 10820 10818 10816 10815 10813 10811 10808 10806
10956 10953 10950 10949 10950 10949 10945 10941 10938 10936 10933 10930 10929 10926 10924 10923 10921 10919 10916 10913 10909 10906 10902 10898 10894 10891 10888 10885 10881 10878 10874 10872 10869 10866 10863 10860 10857 10854 10851 10848 10845 10843 10840 10838 10835 10833 10831 10829 10826 10824 10822 10821 10819 10817 10815 10813 10811 10808 10806 10804 10802 10800 10798
10956 10953 10950 10947 10946 10945 10942 10938 10935 10934 10932 10928 10925 10924 10923 10922 10920 10916 10912 10909 10906 10902 10898 10894 10890 10887 10884 10881 10877 10873 10870 10867 10863 10861 10858 10855 10851 10848 10845 10842 10839 10837 10834 10832 10830 10827 10825 10822 10820 10817 10815 10814 10812 10809 10807 10806 10803 10800 10796 10794 10791 10788 10787
10953 10951 10949 10945 10941 10940 10938 10936 10934 10933 10931 10926 10923 10922 10922 10921 10918 10913 10908 10904 10901 10897 10893 10890 10886 10883 10880 10876 10873 10869 10865 10862 10859 10855 10853 10849 10846 10842 10838 10835 10832 10830 10827 10824 10822 10820 10818 10815 10812 10810 10808 10806 10804 10801 10798 10797 10795 10792 10788 10783 10779 10776 10774
10947 10946 10945 10942 10939 10936 10934 10932 10931 10929 10927 10924 10921 10920 10920 10919 10914 10909 10904 10899 10895 10892 10888 10884 10880 10877 10875 10872 10868 10864 10860 10857 10853 10850 10846 10843 10840 10836 10832 10828 10824 10822 10820 10817 10814 10812 10810 10808 10805 10802 10800 10798 10796 10792 10789 10787 10785 10783 10779 10774 10769 10765 10762
10942 10940 10940 10938 10936 10933 10930 10928 10926 10923 10921 10919 10916 10916 10916 10913 10908 10903 10898 10893 10889 10886 10882 10879 10874 10870 10868 10865 10861 10858 10854 10851 10847 10844 10840 10837 10833 10830 10826 10823 10818 10814 10811 10809 10807 10804 10802 10800 10797 10795 10792 10790 10788 10785 10781 10778 10776 10773 10769 10764 10759 10756 10752
10937 10934 10934 10933 10931 10928 10925 10922 10920 10917 10915 10913 10911 10909 10908 10905 10900 10896 10892 10888 10884 10879 10876 10874 10870 10865 10861 10858 10854 10851 10847 10844 10841 10838 10834 10830 10827 10823 10819 10817 10813 10809 10804 10800 10798 10797 10794 10792 10790 10787 10785 10782 10780 10778 10774 10770 10767 10764 10760 10755 10750 10747 10744
10930 10928 10928 10927 10925 10923 10920 10917 10915 10912 10909 10908 10905 10902 10899 10896 10893 10888 10885 10881 10878 10874 10870 10867 10865 10861 10857 10852 10848 10844 10840 10837 10834 10830 10827 10823 10819 10816 10812 10810 10807 10803 10799 10794 10790 10788 10786 10784 10782 10780 10778 10775 10772 10769 10766 10762 10758 10753 10749 10744 10741 10738 10735
10922 10921 10921 10921 10920 10918 10915 10912 10910 10908 10905 10902 10899 10895 10892 10889 10886 10882 10878 10875 10872 10869 10865 10861 10858 10855 10852 10848 10843 10838 10834 10830 10827 10824 10820 10816 10811 10808 10805 10803 10800 10796 10793 10788 10784 10781 10778 10776 10774 10772 10770 10767 10764 10761 10758 10754 10750 10744 10737 10732 10729 10728 10726
10917 10915 10914 10914 10914 10913 10911 10908 10905 10902 10899 10896 10892 10889 10886 10883 10880 10876 10872 10869 10866 10863 10859 10856 10852 10849 10846 10842 10838 10833 10828 10824 10820 10817 10814 10810 10805 10800 10797 10795 10792 10789 10785 10781 10777 10774 10771 10769 10766 10763 10760 10758 10755 10752 10748 10745 10743 10738 10732 10725 10717 10714 10714
10914 10911 10907 10906 10907 10907 10905 10902 10899 10896 10893 10890 10886 10883 10880 10877 10874 10871 10867 10864 10860 10857 10853 10850 10847 10844 10840 10836 10832 10827 10823 10818 10814 10810 10807 10804 10799 10795 10790 10788 10785 10781 10777 10773 10770 10767 10765 10762 10758 10755 10752 10749 10746 10743 10740 10736 10733 10730 10728 10723 10714 10705 10702
10911 10909 10904 10901 10900 10899 10896 10894 10892 10889 10887 10884 10880 10877 10874 10871 10868 10866 10862 10858 10855 10852 10849 10845 10840 10837 10832 10828 10824 10820 10816 10812 10808 10804 10800 10796 10792 10787 10783 10781 10778 10774 10770 10766 10762 10759 10757 10754 10751 10748 10744 10741 10738 10734 10730 10726 10723 10720 10718 10715 10710 10702 10696
10905 10905 10901 10896 10894 10892 10889 10887 10884 10881 10879 10877 10873 10870 10867 10864 10862 10860 10857 10854 10851 10847 10843 10839 10834 10829 10825 10820 10816 10812 10809 10805 10800 10797 10793 10789 10785 10780 10775 10772 10769 10766 10762 10758 10755 10751 10749 10746 10743 10739 10736 10732 10729 10725 10721 10716 10712 10709 10706 10702 10698 10693 10688
10897 10898 10896 10893 10889 10886 10884 10882 10878 10874 10872 10870 10867 10863 10860 10858 10856 10855 10853 10851 10847 10842 10837 10832 10827 10822 10818 10813 10808 10804 10801 10797 10793 10789 10785 10781 10777 10772 10768 10764 10761 10758 10755 10751 10747 10743 10741 10738 10734 10731 10727 10723 10720 10716 10713 10707 10700 10698 10695 10690 10685 10681 10677
10888 10889 10889 10887 10884 10880 10877 10875 10872 10868 10864 10862 10861 10858 10855 10852 10851 10850 10849 10846 10841 10835 10831 10826 10821 10816 10811 10806 10801 10797 10794 10790 10785 10781 10777 10773 10769 10765 10761 10757 10753 10750 10747 10743 10739 10735 10733 10730 10726 10723 10719 10714 10710 10707 10704 10698 10691 10686 10683 10678 10673 10670 10665
10879 10878 10878 10877 10875 10871 10868 10866 10864 10861 10858 10856 10854 10852 10850 10847 10847 10849 10848 10841 10834 10829 10824 10819 10814 10810 10805 10799 10794 10790 10787 10783 10778 10774 10769 10766 10761 10757 10753 10749 10745 10742 10739 10735 10732 10728 10725 10722 10719 10715 10711 10705 10701 10698 10694 10689 10682 10677 10672 10667 10663 10659 10654
10870 10868 10867 10866 10865 10862 10859 10857 10856 10853 10850 10848 10846 10843 10842 10840 10843 10848 10844 10834 10826 10821 10817 10812 10808 10804 10798 10792 10788 10784 10779 10775 10771 10767 10762 10758 10754 10749 10745 10741 10737 10734 10730 10727 10724 10721 10718 10714 10711 10707 10702 10696 10693 10689 10684 10680 10675 10669 10664 10659 10654 10649 10645
10862 10860 10859 10857 10856 10854 10852 10849 10848 10846 10842 10839 10837 10834 10832 10830 10833 10837 10833 10823 10816 10812 10807 10804 10801 10797 10791 10786 10782 10778 10772 10768 10764 10759 10755 10751 10746 10741 10737 10733 10729 10726 10722 10718 10716 10713 10710 10706 10703 10700 10693 10687 10683 10679 10675 10670 10666 10660 10655 10650 10645 10641 10636
10854 10852 10850 10849 10847 10846 10844 10841 10840 10839 10834 10829 10827 10825 10822 10820 10820 10820 10816 10811 10806 10802 10798 10795 10792 10790 10784 10778 10775 10771 10765 10761 10757 10752 10748 10743 10738 10733 10729 10725 10721 10718 10714 10711 10707 10704 10701 10697 10695 10692 10686 10679 10674 10669 10665 10661 10656 10651 10645 10641 10636 10632 10627
10847 10845 10842 10841 10839 10837 10835 10833 10832 10832 10828 10823 10819 10816 10813 10810 10807 10804 10801 10798 10795 10791 10788 10785 10782 10780 10775 10770 10767 10763 10758 10754 10750 10745 10740 10736 10730 10725 10720 10717 10713 10710 10707 10703 10699 10695 10692 10689 10686 10683 10678 10672 10667 10661 10656 10651 10647 10641 10636 10631 10627 10623 10618
10841 10839 10835 10833 10832 10829 10826 10824 10822 10822 10820 10816 10812 10808 10805 10801 10797 10794 10790 10787 10784 10781 10778 10775 10772 10770 10766 10761 10758 10755 10750 10746 10743 10738 10733 10728 10722 10716 10711 10708 10705 10703 10700 10695 10691 10688 10684 10680 10677 10673 10668 10663 10658 10653 10648 10642 10637 10632 10627 10622 10618 10614 10610
10834 10832 10829 10827 10825 10822 10820 10817 10814 10812 10809 10807 10804 10801 10797 10793 10789 10785 10781 10777 10775 10772 10768 10766 10763 10760 10757 10753 10749 10746 10742 10738 10734 10730 10725 10720 10715 10709 10703 10699 10696 10694 10692 10687 10683 10681 10677 10672 10667 10663 10658 10653 10648 10644 10639 10633 10627 10623 10619 10614 10609 10606 10602
10827 10825 10822 10821 10818 10815 10813 10811 10807 10805 10802 10799 10796 10793 10789 10785 10781 10778 10773 10769 10765 10761 10759 10758 10755 10751 10748 10745 10741 10737 10733 10728 10725 10720 10715 10711 10707 10702 10698 10692 10687 10684 10683 10680 10676 10673 10670 10665 10659 10654 10649 10644 10639 10634 10629 10624 10618 10613 10610 10605 10601 10597 10595
10820 10818 10816 10814 10812 10809 10807 10803 10800 10798 10795 10792 10789 10786 10782 10778 10774 10770 10766 10762 10758 10753 10749 10747 10746 10742 10738 10734 10730 10726 10722 10719 10716 10711 10707 10702 10698 10694 10692 10687 10681 10677 10675 10672 10668 10665 10661 10656 10651 10645 10639 10633 10629 10625 10619 10613 10608 10605 10601 10597 10593 10590 10588
10811 10810 10808 10807 10805 10802 10800 10796 10793 10791 10788 10785 10782 10779 10775 10772 10767 10763 10759 10755 10752 10747 10742 10739 10736 10734 10729 10725 10721 10717 10713 10710 10708 10704 10700 10695 10690 10687 10685 10681 10675 10671 10669 10666 10662 10658 10652 10646 10642 10637 10630 10623 10620 10617 10611 10603 10598 10596 10593 10589 10586 10583 10582
10803 10801 10800 10798 10797 10795 10792 10788 10785 10784 10782 10778 10775 10771 10768 10764 10760 10754 10750 10747 10745 10742 10737 10731 10727 10725 10721 10717 10713 10709 10707 10703 10699 10696 10693 10689 10684 10681 10679 10674 10668 10664 10661 10658 10655 10651 10646 10640 10634 10629 10623 10617 10611 10608 10603 10596 10590 10588 10585 10582 10579 10576 10575
10794 10793 10792 10790 10788 10786 10783 10780 10778 10776 10775 10771 10768 10764 10760 10756 10752 10747 10741 10737 10736 10734 10730 10724 10719 10715 10712 10710 10705 10702 10699 10695 10690 10688 10685 10680 10677 10675 10672 10667 10661 10656 10653 10649 10646 10643 10639 10634 10628 10622 10616 10611 10606 10601 10596 10589 10583 10581 10578 10575 10573 10571 10570
10786 10785 10783 10782 10780 10777 10774 10773 10770 10768 10766 10764 10761 10757 10751 10747 10744 10740 10734 10729 10726 10725 10723 10720 10714 10709 10705 10702 10698 10694 10692 10688 10683 10681 10678 10672 10669 10667 10664 10659 10655 10649 10645 10641 10638 10634 10630 10627 10622 10615 10608 10603 10598 10593 10588 10581 10576 10574 10571 10569 10567 10565 10565
10777 10775 10774 10772 10771 10767 10766 10766 10763 10759 10757 10755 10752 10749 10744 10739 10736 10733 10730 10726 10721 10718 10716 10713 10708 10703 10698 10695 10691 10688 10686 10682 10678 10675 10671 10665 10662 10659 10655 10652 10648 10643 10637 10633 10629 10626 10622 10618 10614 10608 10601 10594 10589 10584 10579 10574 10570 10567 10565 10562 10561 10560 10559
10768 10765 10762 10760 10759 10757 10757 10757 10754 10750 10748 10746 10742 10738 10735 10731 10726 10724 10723 10721 10716 10711 10707 10704 10700 10695 10689 10685 10683 10680 10677 10674 10671 10668 10664 10658 10655 10651 10646 10642 10639 10635 10630 10624 10620 10617 10614 10609 10606 10602 10596 10590 10584 10578 10574 10568 10564 10561 10559 10557 10556 10555 10554
10757 10755 10752 10749 10747 10746 10745 10745 10743 10740 10738 10736 10732 10728 10725 10722 10718 10715 10712 10710 10706 10702 10698 10693 10689 10685 10679 10675 10671 10669 10666 10663 10660 10658 10654 10650 10647 10642 10636 10631 10627 10626 10623 10616 10610 10607 10604 10600 10597 10594 10590 10585 10579 10573 10569 10564 10559 10556 10555 10553 10551 10551 10550
10745 10743 10742 10739 10737 10735 10734 10733 10733 10730 10727 10726 10724 10720 10717 10714 10711 10706 10702 10700 10696 10691 10687 10683 10678 10673 10668 10664 10662 10660 10657 10653 10649 10646 10642 10638 10635 10632 10628 10621 10616 10614 10614 10610 10603 10598 10594 10589 10586 10584 10581 10576 10571 10567 10563 10558 10553 10551 10550 10548 10547 10546 10545
10735 10733 10732 10731 10728 10726 10723 10722 10720 10718 10715 10714 10713 10711 10707 10703 10698 10692 10689 10689 10687 10680 10675 10672 10668 10662 10656 10653 10652 10651 10648 10643 10639 10636 10632 10628 10624 10621 10618 10613 10606 10602 10602 10599 10594 10590 10586 10580 10575 10573 10571 10567 10563 10560 10556 10552 10548 10545 10544 10542 10542 10541 10540
10725 10724 10722 10721 10720 10718 10715 10712 10709 10706 10703 10701 10699 10698 10695 10691 10687 10680 10675 10675 10674 10669 10664 10661 10657 10651 10646 10642 10641 10641 10637 10631 10627 10624 10621 10619 10614 10610 10607 10604 10598 10592 10590 10588 10584 10579 10576 10572 10566 10562 10560 10557 10553 10551 10549 10546 10543 10540 10538 10537 10537 10536 10536
10716 10714 10713 10711 10709 10708 10705 10701 10698 10695 10692 10688 10685 10683 10680 10677 10675 10670 10664 10661 10661 10657 10653 10650 10647 10641 10636 10632 10630 10630 10626 10620 10617 10613 10610 10608 10604 10599 10595 10593 10589 10584 10580 10578 10574 10569 10565 10562 10558 10554 10551 10547 10544 10542 10540 10538 10537 10535 10533 10532 10532 10532 10532
10708 10707 10706 10702 10698 10696 10693 10690 10687 10684 10681 10676 10673 10671 10668 10664 10662 10659 10654 10651 10649 10645 10641 10640 10636 10632 10627 10623 10622 10620 10615 10610 10606 10603 10600 10598 10594 10589 10585 10582 10578 10574 10570 10567 10564 10560 10556 10552 10549 10546 10543 10539 10536 10533 10532 10531 10530 10530 10528 10528 10528 10528 10527